Location: Newark
(34.3481°N, 134.0494°E)
Time: 03:17:56
(UTC+00:00)

Vanguard 3 - Pass Details

Date: 31 January 2020
Orbit: 508 x 3263 km, 33.3° (Epoch: 16 February)

Event Time Altitude Azimuth Distance (km) Brightness Sun altitude
Rises 06:38:32 0° 241° (WSW) 6,026 13.1 19.4°
Reaches altitude 10° 06:42:01 10° 240° (WSW) 5,300 13.5 18.9°
Maximum altitude 06:59:19 73° 159° (SSE) 3,312 10.6 16.0°
Drops below altitude 10° 07:18:52 10° 79° (E) 5,888 11.0 12.6°
Sets 07:22:59 0° 78° (ENE) 6,691 11.2 11.9°
